AFR4LG LFKC-LFPG

Flight info

Callsign AFR4LG
Flight time N/A
Altitude 36000
Route SODRI G374 DIVUL M622 PIGOS DCT BARSO DCT OKTET DCT GIPNO DCT LOGNI DCT MOKIP DCT ARFOZ DCT TINIL
Aircraft A320/M-SDE3FGHIRWY/LB1

Departure

Time 2026-05-03 21:56
Airport Calvi Sainte Catherine Airport (LFKC)

Arrival

Time N/A
Airport Charles de Gaulle International Airport (LFPG)
Time Latitude Longitude Altitude Speed Heading
2026-05-03 21:39 42.52518 8.79078 190 ft 0 kts 300°
2026-05-03 21:40 42.52518 8.79079 190 ft 0 kts 300°
2026-05-03 21:49 42.52517 8.79082 190 ft 3 kts 299°
2026-05-03 21:49 42.52507 8.79114 194 ft 4 kts 274°
2026-05-03 21:50 42.52512 8.79147 198 ft 4 kts 229°
2026-05-03 21:50 42.52530 8.79162 201 ft 2 kts 179°
2026-05-03 21:50 42.52531 8.79162 200 ft 0 kts 179°
2026-05-03 21:52 42.52526 8.79162 190 ft 5 kts 179°
2026-05-03 21:53 42.52473 8.79161 195 ft 7 kts 180°
2026-05-03 21:53 42.52444 8.79173 202 ft 4 kts 136°
2026-05-03 21:53 42.52429 8.79274 206 ft 12 kts 117°
2026-05-03 21:53 42.52365 8.79301 200 ft 12 kts 180°
2026-05-03 21:54 42.52264 8.79299 206 ft 13 kts 181°
2026-05-03 21:54 42.52186 8.79298 219 ft 9 kts 180°
2026-05-03 21:54 42.52140 8.79298 213 ft 4 kts 180°
2026-05-03 21:54 42.52101 8.79284 220 ft 11 kts 206°
2026-05-03 21:55 42.52063 8.79296 221 ft 5 kts 68°
2026-05-03 21:55 42.52119 8.79304 214 ft 17 kts
2026-05-03 21:55 42.52503 8.79301 202 ft 94 kts 359°
2026-05-03 21:55 42.53378 8.79297 139 ft 153 kts 360°
2026-05-03 21:56 42.54482 8.79296 644 ft 160 kts
2026-05-03 21:56 42.55585 8.79291 1362 ft 158 kts
2026-05-03 21:56 42.56686 8.79286 2035 ft 160 kts
2026-05-03 21:56 42.57825 8.79117 2372 ft 179 kts 336°
2026-05-03 21:57 42.58726 8.77874 2627 ft 200 kts 292°
2026-05-03 21:57 42.59257 8.76010 2868 ft 225 kts 294°
2026-05-03 21:57 42.60087 8.74080 3245 ft 249 kts 306°
2026-05-03 21:57 42.61179 8.72148 3820 ft 264 kts 309°
2026-05-03 21:58 42.62370 8.70209 4658 ft 270 kts 309°
2026-05-03 21:58 42.63595 8.68242 5502 ft 275 kts 308°
2026-05-03 21:58 42.64836 8.66232 6340 ft 280 kts 308°
2026-05-03 21:58 42.66062 8.64143 7134 ft 284 kts 304°
2026-05-03 21:59 42.67218 8.61943 7948 ft 288 kts 302°
2026-05-03 21:59 42.68349 8.59673 8749 ft 292 kts 300°
2026-05-03 21:59 42.69481 8.57354 9558 ft 296 kts 300°
2026-05-03 21:59 42.70647 8.55024 10326 ft 302 kts 305°
2026-05-03 22:00 42.72133 8.53001 10971 ft 314 kts 319°
2026-05-03 22:00 42.74101 8.51459 11190 ft 341 kts 336°
2026-05-03 22:00 42.76378 8.50284 11581 ft 356 kts 338°
2026-05-03 22:00 42.78627 8.49134 12222 ft 361 kts 338°
2026-05-03 22:01 42.80992 8.47914 12940 ft 365 kts 337°
2026-05-03 22:01 42.83377 8.46672 13649 ft 369 kts 337°
2026-05-03 22:01 42.85784 8.45408 14295 ft 372 kts 337°
2026-05-03 22:01 42.88209 8.44127 14923 ft 375 kts 337°
2026-05-03 22:02 42.90656 8.42830 15559 ft 378 kts 337°
2026-05-03 22:02 42.93120 8.41523 16196 ft 381 kts 337°
2026-05-03 22:02 42.95602 8.40211 16816 ft 384 kts 337°
2026-05-03 22:02 42.98073 8.38806 17440 ft 386 kts 330°
2026-05-03 22:03 43.00319 8.36818 18042 ft 385 kts 318°
2026-05-03 22:03 43.02204 8.34237 18621 ft 384 kts 306°
2026-05-03 22:03 43.03650 8.31199 19245 ft 379 kts 295°
2026-05-03 22:03 43.04878 8.28014 19834 ft 380 kts 295°
2026-05-03 22:04 43.06100 8.24862 20345 ft 382 kts 295°
2026-05-03 22:04 43.07353 8.21637 20845 ft 385 kts 295°
2026-05-03 22:04 43.08616 8.18388 21333 ft 387 kts 295°
2026-05-03 22:04 43.09883 8.15119 21818 ft 390 kts 295°
2026-05-03 22:05 43.11160 8.11822 22304 ft 393 kts 295°
2026-05-03 22:05 43.12442 8.08505 22767 ft 396 kts 295°
2026-05-03 22:05 43.13733 8.05158 23225 ft 399 kts 295°
2026-05-03 22:05 43.15031 8.01786 23685 ft 402 kts 295°
2026-05-03 22:06 43.16335 7.98394 24108 ft 403 kts 295°
2026-05-03 22:06 43.17645 7.94992 24512 ft 405 kts 296°
2026-05-03 22:06 43.18966 7.91563 24841 ft 409 kts 296°
2026-05-03 22:06 43.20294 7.88110 25201 ft 411 kts 295°
2026-05-03 22:07 43.21627 7.84634 25579 ft 413 kts 295°
2026-05-03 22:07 43.22963 7.81138 25953 ft 415 kts 295°
2026-05-03 22:07 43.24284 7.77675 26310 ft 416 kts 295°
2026-05-03 22:07 43.25629 7.74148 26686 ft 418 kts 295°
2026-05-03 22:08 43.26980 7.70604 27050 ft 420 kts 295°
2026-05-03 22:08 43.28360 7.67049 27399 ft 423 kts 298°
2026-05-03 22:08 43.30082 7.63753 27755 ft 428 kts 308°
2026-05-03 22:08 43.32243 7.60894 28096 ft 434 kts 319°
2026-05-03 22:09 43.34777 7.58586 28439 ft 440 kts 328°
2026-05-03 22:09 43.37467 7.56518 28729 ft 444 kts 328°
2026-05-03 22:09 43.40164 7.54424 29023 ft 447 kts 327°
2026-05-03 22:10 43.45595 7.50164 29624 ft 452 kts 327°
2026-05-03 22:10 43.48302 7.48042 29925 ft 454 kts 327°
2026-05-03 22:10 43.51051 7.45886 30211 ft 455 kts 327°
2026-05-03 22:10 43.53810 7.43719 30461 ft 457 kts 327°
2026-05-03 22:11 43.56579 7.41545 30715 ft 459 kts 327°
2026-05-03 22:11 43.59358 7.39363 30989 ft 460 kts 327°
2026-05-03 22:11 43.62142 7.37176 31284 ft 460 kts 326°
2026-05-03 22:11 43.64873 7.34905 31674 ft 457 kts 324°
2026-05-03 22:12 43.67532 7.32533 32060 ft 454 kts 322°
2026-05-03 22:12 43.70145 7.30095 32441 ft 452 kts 321°
2026-05-03 22:12 43.72729 7.27636 32815 ft 450 kts 321°
2026-05-03 22:12 43.75310 7.25187 33198 ft 448 kts 321°
2026-05-03 22:13 43.77885 7.22772 33597 ft 447 kts 322°
2026-05-03 22:13 43.80462 7.20382 34002 ft 445 kts 322°
2026-05-03 22:13 43.83002 7.18048 34353 ft 444 kts 322°
2026-05-03 22:13 43.85580 7.15691 34679 ft 442 kts 322°
2026-05-03 22:14 43.88144 7.13343 34980 ft 441 kts 322°
2026-05-03 22:14 43.90698 7.10996 35284 ft 440 kts 322°
2026-05-03 22:14 43.93244 7.08647 35542 ft 439 kts 321°
2026-05-03 22:14 43.95787 7.06296 35778 ft 438 kts 321°
2026-05-03 22:15 43.98323 7.03950 36038 ft 438 kts 321°
2026-05-03 22:15 44.03377 6.99267 36144 ft 434 kts 321°
2026-05-03 22:16 44.08394 6.94602 36149 ft 433 kts 321°
2026-05-03 22:16 44.13405 6.89926 36150 ft 433 kts 321°
2026-05-03 22:17 44.18423 6.85248 36147 ft 434 kts 321°
2026-05-03 22:17 44.23441 6.80557 36144 ft 435 kts 321°
2026-05-03 22:18 44.28437 6.75874 36143 ft 436 kts 321°
2026-05-03 22:18 44.32645 6.71914 36139 ft 436 kts 321°
2026-05-03 22:19 44.37671 6.67173 36126 ft 436 kts 321°
2026-05-03 22:19 44.42705 6.62433 36150 ft 436 kts 321°
2026-05-03 22:20 44.47736 6.57678 36146 ft 436 kts 321°
2026-05-03 22:20 44.52759 6.52929 36139 ft 435 kts 321°
2026-05-03 22:21 44.57736 6.48199 36136 ft 435 kts 321°
2026-05-03 22:21 44.62746 6.43430 36143 ft 435 kts 321°
2026-05-03 22:22 44.67776 6.38648 36128 ft 436 kts 321°
2026-05-03 22:22 44.72802 6.33857 36123 ft 436 kts 321°
2026-05-03 22:23 44.77823 6.29054 36121 ft 437 kts 321°
2026-05-03 22:23 44.82844 6.24239 36128 ft 436 kts 321°
2026-05-03 22:24 44.87860 6.19415 36110 ft 436 kts 321°
2026-05-03 22:24 44.92840 6.14619 36106 ft 436 kts 321°
2026-05-03 22:25 44.97844 6.09787 36106 ft 436 kts 321°
2026-05-03 22:25 45.02854 6.04954 36092 ft 437 kts 321°
2026-05-03 22:26 45.07863 6.00102 36072 ft 435 kts 321°
2026-05-03 22:26 45.12866 5.95248 36065 ft 437 kts 321°
2026-05-03 22:27 45.17878 5.90370 36079 ft 437 kts 321°
2026-05-03 22:27 45.22896 5.85483 36067 ft 437 kts 321°
2026-05-03 22:28 45.27861 5.80624 36073 ft 436 kts 320°
2026-05-03 22:28 45.32860 5.75714 36078 ft 437 kts 320°
2026-05-03 22:29 45.37869 5.70796 36068 ft 437 kts 320°
2026-05-03 22:29 45.42872 5.65869 36067 ft 437 kts 320°
2026-05-03 22:30 45.47880 5.60936 36081 ft 438 kts 320°
2026-05-03 22:30 45.52896 5.55997 36080 ft 438 kts 320°
2026-05-03 22:31 45.58156 5.51547 36075 ft 445 kts 331°
2026-05-03 22:31 45.63785 5.48001 36070 ft 445 kts 331°
2026-05-03 22:32 45.69453 5.44416 36073 ft 445 kts 331°
2026-05-03 22:32 45.75120 5.40820 36057 ft 446 kts 331°
2026-05-03 22:33 45.80799 5.37212 36054 ft 446 kts 330°
2026-05-03 22:33 45.86481 5.33588 36065 ft 447 kts 330°
2026-05-03 22:34 45.92160 5.29960 36067 ft 446 kts 330°
2026-05-03 22:34 45.97836 5.26329 36066 ft 446 kts 330°
2026-05-03 22:35 46.03503 5.22698 36057 ft 446 kts 330°
2026-05-03 22:35 46.09175 5.19067 36060 ft 446 kts 330°
2026-05-03 22:36 46.14837 5.15420 36068 ft 446 kts 330°
2026-05-03 22:36 46.20477 5.11772 36053 ft 447 kts 331°
2026-05-03 22:37 46.26538 5.09441 36047 ft 458 kts 350°
2026-05-03 22:37 46.32958 5.09313 36035 ft 463 kts 356°
2026-05-03 22:38 46.39404 5.09340 36032 ft 463 kts 355°
2026-05-03 22:38 46.45856 5.09361 36040 ft 463 kts 356°
2026-05-03 22:39 46.52304 5.09384 36037 ft 464 kts 356°
2026-05-03 22:39 46.58757 5.09411 36034 ft 463 kts 356°
2026-05-03 22:40 46.65210 5.09439 36027 ft 464 kts 356°
2026-05-03 22:40 46.71621 5.09476 36025 ft 464 kts 356°
2026-05-03 22:41 46.78076 5.09510 36022 ft 464 kts 356°
2026-05-03 22:41 46.84524 5.09535 36023 ft 464 kts 356°
2026-05-03 22:42 46.90978 5.09558 36028 ft 464 kts 356°
2026-05-03 22:42 46.97442 5.09582 36020 ft 464 kts 356°
2026-05-03 22:43 47.03906 5.09610 36019 ft 465 kts 356°
2026-05-03 22:43 47.10379 5.09634 36028 ft 465 kts 356°
2026-05-03 22:44 47.16844 5.09656 36028 ft 465 kts 356°
2026-05-03 22:44 47.23316 5.09693 36028 ft 465 kts 356°
2026-05-03 22:45 47.29740 5.09735 36034 ft 465 kts 356°
2026-05-03 22:45 47.36213 5.09765 36028 ft 465 kts 356°
2026-05-03 22:46 47.42682 5.09789 36025 ft 465 kts 356°
2026-05-03 22:46 47.49160 5.09827 36032 ft 465 kts 356°
2026-05-03 22:46 47.52403 5.09822 35644 ft 467 kts 353°
2026-05-03 22:47 47.55623 5.09252 34835 ft 465 kts 343°
2026-05-03 22:47 47.58731 5.07898 33935 ft 465 kts 333°
2026-05-03 22:47 47.61600 5.05823 33429 ft 452 kts 324°
2026-05-03 22:47 47.64168 5.03223 32963 ft 440 kts 315°
2026-05-03 22:48 47.66498 5.00336 32459 ft 434 kts 314°
2026-05-03 22:48 47.68797 4.97466 31979 ft 429 kts 314°
2026-05-03 22:48 47.71065 4.94628 31525 ft 424 kts 313°
2026-05-03 22:48 47.73282 4.91844 31060 ft 420 kts 313°
2026-05-03 22:49 47.75528 4.89015 30598 ft 416 kts 313°
2026-05-03 22:49 47.77697 4.86279 30148 ft 412 kts 313°
2026-05-03 22:49 47.79871 4.83527 29652 ft 408 kts 313°
2026-05-03 22:49 47.82019 4.80805 29224 ft 404 kts 313°
2026-05-03 22:50 47.84148 4.78106 28771 ft 401 kts 313°
2026-05-03 22:50 47.86264 4.75418 28329 ft 398 kts 313°
2026-05-03 22:50 47.88363 4.72744 27894 ft 396 kts 313°
2026-05-03 22:50 47.90450 4.70085 27463 ft 394 kts 314°
2026-05-03 22:51 47.92523 4.67445 27039 ft 391 kts 313°
2026-05-03 22:51 47.94585 4.64819 26618 ft 388 kts 313°
2026-05-03 22:51 47.96638 4.62202 26178 ft 387 kts 313°
2026-05-03 22:51 47.98682 4.59600 25750 ft 385 kts 313°
2026-05-03 22:52 48.00717 4.57008 25335 ft 383 kts 314°
2026-05-03 22:52 48.02740 4.54425 24917 ft 382 kts 314°
2026-05-03 22:52 48.04748 4.51851 24497 ft 380 kts 314°
2026-05-03 22:52 48.06746 4.49281 24077 ft 378 kts 314°
2026-05-03 22:53 48.08732 4.46726 23665 ft 376 kts 314°
2026-05-03 22:53 48.10713 4.44177 23214 ft 374 kts 314°
2026-05-03 22:53 48.12686 4.41644 22796 ft 372 kts 314°
2026-05-03 22:53 48.14650 4.39119 22390 ft 371 kts 314°
2026-05-03 22:54 48.16595 4.36593 21983 ft 370 kts 314°
2026-05-03 22:54 48.18500 4.34098 21586 ft 368 kts 314°
2026-05-03 22:54 48.20415 4.31573 21184 ft 366 kts 314°
2026-05-03 22:54 48.22320 4.29058 20789 ft 364 kts 314°
2026-05-03 22:55 48.24214 4.26564 20398 ft 362 kts 314°
2026-05-03 22:55 48.26079 4.24051 19997 ft 358 kts 310°
2026-05-03 22:55 48.27692 4.21247 19614 ft 353 kts 305°
2026-05-03 22:55 48.29246 4.18417 19227 ft 351 kts 305°
2026-05-03 22:56 48.30797 4.15590 18844 ft 349 kts 305°
2026-05-03 22:56 48.32333 4.12787 18460 ft 347 kts 306°
2026-05-03 22:56 48.33864 4.09990 18054 ft 345 kts 306°
2026-05-03 22:56 48.35384 4.07214 17671 ft 343 kts 306°
2026-05-03 22:57 48.36895 4.04457 17300 ft 340 kts 306°
2026-05-03 22:57 48.38391 4.01731 17003 ft 334 kts 306°
2026-05-03 22:57 48.39866 3.99037 16586 ft 333 kts 306°
2026-05-03 22:57 48.41329 3.96356 16201 ft 331 kts 305°
2026-05-03 22:58 48.42783 3.93684 15842 ft 328 kts 305°
2026-05-03 22:58 48.44221 3.91035 15487 ft 326 kts 305°
2026-05-03 22:58 48.45653 3.88400 15131 ft 324 kts 305°
2026-05-03 22:58 48.47076 3.85782 14781 ft 323 kts 305°
2026-05-03 22:59 48.48499 3.83167 14426 ft 322 kts 305°
2026-05-03 22:59 48.49912 3.80559 14077 ft 320 kts 305°
2026-05-03 22:59 48.51317 3.77955 13723 ft 320 kts 304°
2026-05-03 22:59 48.52718 3.75360 13347 ft 318 kts 304°
2026-05-03 23:00 48.54064 3.72785 13002 ft 314 kts 300°
2026-05-03 23:00 48.55248 3.70043 12669 ft 311 kts 298°
2026-05-03 23:00 48.56424 3.67311 12328 ft 309 kts 298°
2026-05-03 23:00 48.57592 3.64592 12021 ft 307 kts 298°
2026-05-03 23:01 48.58735 3.61941 11969 ft 297 kts 298°
2026-05-03 23:01 48.59857 3.59331 11978 ft 295 kts 298°
2026-05-03 23:01 48.61116 3.56873 11974 ft 298 kts 311°
2026-05-03 23:01 48.62763 3.54934 11975 ft 303 kts 325°
2026-05-03 23:02 48.64602 3.53352 11975 ft 304 kts 326°
2026-05-03 23:02 48.66439 3.51766 11975 ft 304 kts 326°
2026-05-03 23:02 48.68271 3.50174 11975 ft 304 kts 326°
2026-05-03 23:02 48.70107 3.48577 11975 ft 304 kts 326°
2026-05-03 23:03 48.71939 3.46979 11979 ft 304 kts 326°
2026-05-03 23:03 48.73770 3.45379 11975 ft 304 kts 326°
2026-05-03 23:03 48.75604 3.43775 11975 ft 304 kts 326°
2026-05-03 23:03 48.77434 3.42169 11975 ft 304 kts 326°
2026-05-03 23:04 48.79266 3.40564 11978 ft 304 kts 326°
2026-05-03 23:04 48.81117 3.39000 11978 ft 305 kts 327°
2026-05-03 23:04 48.82979 3.37466 11977 ft 305 kts 327°
2026-05-03 23:04 48.84848 3.35942 11978 ft 305 kts 327°
2026-05-03 23:05 48.86716 3.34419 11972 ft 305 kts 327°
2026-05-03 23:05 48.88581 3.32888 11972 ft 305 kts 327°
2026-05-03 23:05 48.90445 3.31347 11975 ft 305 kts 327°
2026-05-03 23:05 48.92307 3.29805 11975 ft 305 kts 327°
2026-05-03 23:06 48.94146 3.28283 11975 ft 305 kts 327°
2026-05-03 23:06 48.96009 3.26740 11975 ft 305 kts 327°
2026-05-03 23:06 48.97870 3.25195 11975 ft 305 kts 327°
2026-05-03 23:06 48.99730 3.23644 11974 ft 305 kts 327°
2026-05-03 23:07 49.01586 3.22094 11978 ft 305 kts 327°
2026-05-03 23:07 49.02842 3.21044 11978 ft 305 kts 327°
2026-05-03 23:07 49.05301 3.18990 11977 ft 304 kts 327°
2026-05-03 23:07 49.07156 3.17438 11976 ft 304 kts 327°
2026-05-03 23:08 49.08411 3.16388 11978 ft 304 kts 327°
2026-05-03 23:08 49.10268 3.14837 11974 ft 304 kts 327°
2026-05-03 23:08 49.12123 3.13287 11970 ft 304 kts 327°
2026-05-03 23:08 49.13976 3.11732 11967 ft 304 kts 327°
2026-05-03 23:09 49.15827 3.10177 11973 ft 304 kts 327°
2026-05-03 23:09 49.17682 3.08621 11975 ft 304 kts 327°
2026-05-03 23:09 49.19536 3.07062 11978 ft 304 kts 327°
2026-05-03 23:09 49.21391 3.05496 11976 ft 304 kts 327°
2026-05-03 23:10 49.23246 3.03932 11969 ft 304 kts 327°
2026-05-03 23:10 49.25080 3.02391 11966 ft 305 kts 327°
2026-05-03 23:10 49.26937 3.00829 11978 ft 305 kts 327°
2026-05-03 23:10 49.28795 2.99264 11969 ft 305 kts 327°
2026-05-03 23:11 49.30652 2.97699 11968 ft 304 kts 327°
2026-05-03 23:11 49.32507 2.96132 11969 ft 304 kts 327°
2026-05-03 23:11 49.34364 2.94561 11973 ft 304 kts 327°
2026-05-03 23:11 49.36216 2.92991 11973 ft 304 kts 327°
2026-05-03 23:12 49.38070 2.91420 11972 ft 304 kts 327°
2026-05-03 23:12 49.39920 2.89851 11967 ft 304 kts 327°
2026-05-03 23:12 49.41770 2.88279 11962 ft 304 kts 327°
2026-05-03 23:12 49.43600 2.86722 11960 ft 304 kts 327°
2026-05-03 23:13 49.45475 2.85126 11963 ft 304 kts 327°
2026-05-03 23:13 49.47306 2.83570 11970 ft 305 kts 327°
2026-05-03 23:13 49.49161 2.81992 11971 ft 304 kts 327°
2026-05-03 23:13 49.51011 2.80415 11957 ft 304 kts 327°
2026-05-03 23:14 49.52859 2.78836 11958 ft 304 kts 327°
2026-05-03 23:14 49.54707 2.77257 11959 ft 304 kts 327°
2026-05-03 23:14 49.56554 2.75676 11959 ft 304 kts 327°
2026-05-03 23:14 49.58400 2.74092 11960 ft 304 kts 327°
2026-05-03 23:15 49.60249 2.72504 11958 ft 304 kts 327°
2026-05-03 23:15 49.62098 2.70917 11960 ft 304 kts 327°
2026-05-03 23:15 49.63946 2.69332 11974 ft 304 kts 327°
2026-05-03 23:15 49.65790 2.67752 11969 ft 303 kts 327°
2026-05-03 23:16 49.67635 2.66170 11965 ft 303 kts 327°
2026-05-03 23:16 49.69477 2.64586 11962 ft 303 kts 327°
2026-05-03 23:16 49.71322 2.62996 11962 ft 303 kts 327°
2026-05-03 23:16 49.73162 2.61408 11963 ft 303 kts 327°
2026-05-03 23:17 49.75002 2.59822 11965 ft 303 kts 327°
2026-05-03 23:17 49.76847 2.58231 11961 ft 303 kts 327°
2026-05-03 23:17 49.78689 2.56640 11961 ft 303 kts 327°
2026-05-03 23:17 49.80532 2.55045 11961 ft 303 kts 327°
2026-05-03 23:18 49.82349 2.53469 11961 ft 303 kts 327°
2026-05-03 23:18 49.84189 2.51872 11966 ft 303 kts 327°
2026-05-03 23:18 49.86031 2.50272 11960 ft 303 kts 327°
2026-05-03 23:18 49.87869 2.48674 11960 ft 303 kts 327°
2026-05-03 23:19 49.89713 2.47072 11963 ft 303 kts 327°
2026-05-03 23:19 49.91552 2.45473 11963 ft 303 kts 327°
2026-05-03 23:19 49.93393 2.43873 11952 ft 303 kts 327°
2026-05-03 23:19 49.95234 2.42275 11957 ft 303 kts 327°
2026-05-03 23:20 49.97074 2.40674 11954 ft 303 kts 327°
2026-05-03 23:20 49.98912 2.39072 11955 ft 303 kts 327°
2026-05-03 23:20 50.00755 2.37463 11955 ft 303 kts 327°
2026-05-03 23:20 50.02591 2.35857 11956 ft 303 kts 327°
2026-05-03 23:21 50.04426 2.34248 11958 ft 303 kts 327°
2026-05-03 23:21 50.06263 2.32638 11958 ft 303 kts 327°
2026-05-03 23:21 50.08102 2.31029 11959 ft 303 kts 327°
2026-05-03 23:21 50.09937 2.29425 11960 ft 303 kts 327°
2026-05-03 23:22 50.13589 2.26222 11960 ft 303 kts 328°
2026-05-03 23:22 50.15449 2.24587 11964 ft 303 kts 328°
2026-05-03 23:22 50.17257 2.22994 11964 ft 303 kts 328°
2026-05-03 23:23 50.19091 2.21377 11964 ft 303 kts 328°
2026-05-03 23:23 50.20926 2.19761 11963 ft 303 kts 328°
2026-05-03 23:23 50.22760 2.18143 11962 ft 303 kts 328°
2026-05-03 23:23 50.24597 2.16521 11966 ft 303 kts 328°
2026-05-03 23:24 50.26430 2.14899 11964 ft 303 kts 328°
2026-05-03 23:24 50.28264 2.13273 11965 ft 303 kts 328°
2026-05-03 23:24 50.30096 2.11643 11963 ft 303 kts 328°
2026-05-03 23:24 50.31931 2.10013 11963 ft 303 kts 328°
2026-05-03 23:25 50.33763 2.08385 11965 ft 303 kts 328°
2026-05-03 23:25 50.35597 2.06753 11963 ft 303 kts 328°
2026-05-03 23:25 50.37428 2.05125 11967 ft 303 kts 328°
2026-05-03 23:25 50.39263 2.03492 11964 ft 303 kts 328°
2026-05-03 23:26 50.41099 2.01856 11965 ft 303 kts 328°
2026-05-03 23:26 50.42934 2.00220 11963 ft 303 kts 328°
2026-05-03 23:26 50.44769 1.98584 11964 ft 303 kts 328°
2026-05-03 23:26 50.46580 1.96971 11961 ft 303 kts 328°
2026-05-03 23:27 50.48420 1.95332 11777 ft 303 kts 328°
2026-05-03 23:27 50.50246 1.93701 11529 ft 301 kts 328°